Location: Bonny Doon Airfield
(37.0704°N, 122.1252°W)
Time: 23:08:25
(UTC-07:00)

Vanguard 2 - Pass Details

Date: 13 December 2017
Orbit: 553 x 2939 km, 32.9° (Epoch: 22 July)

Event Time Altitude Azimuth Distance (km) Brightness Sun altitude
Rises 15:02:34 0° 237° (WSW) 4,937 13.2 16.4°
Reaches altitude 10° 15:06:40 10° 231° (SW) 3,530 13.4 15.8°
Maximum altitude 15:14:13 38° 166° (SSE) 1,462 9.5 14.8°
Drops below altitude 10° 15:19:08 10° 99° (E) 2,289 9.7 14.1°
Sets 15:21:16 0° 90° (E) 3,039 10.2 13.8°
